Regional Weather Roundup
Issued by NWS State College, PA

Current Version | Previous Version | Text Only | Print | Product List | Glossary On
Versions: 1 2 3 4 5 6 7 8 9 10 11 12 13 14 15 16 17 18 19 20 21 22 23 24 25 26 27 28 29 30 31 32 33 34 35 36 37 38 39 40 41 42 43 44 45 46 47 48 49 50
000
ASUS41 KCTP 011110
RWRCTP

REGIONAL WEATHER ROUNDUP
NATIONAL WEATHER SERVICE STATE COLLEGE PA
700 AM EDT MON SEP 01 2014

Note: "fair" indicates few or no clouds below 12,000 feet with no
significant weather and/or obstructions to visibility.

* = STATION THAT DOES NOT REPORT PRECIPITATION /E.G. RAIN...SNOW...ETC/
    THUNDER OR FOG.

PAZ002>004-007>009-013>016-020>023-029>032-011200-
WESTERN PENNSYLVANIA

CITY           SKY/WX    TMP DP  RH WIND       PRES   REMARKS
ERIE           MOCLDY    72  68  87 S5        29.98S
MEADVILLE      CLOUDY    70  68  93 VRB3      30.03R FOG
FRANKLIN*      CLOUDY    68  66  94 S6        30.05S
NEW CASTLE     CLOUDY    71  69  93 CALM      30.04R
BEAVER COUNTY  NOT AVBL
BUTLER*        CLOUDY    70  66  88 S5        30.05S
PITTSBURGH INT DRIZZLE   69  69 100 S3        30.03S FOG
PITTSBURGH     LGT RAIN  70  68  93 SE3       30.03S FOG
INDIANA*       CLOUDY    70  68  94 CALM      30.09S
LATROBE        CLOUDY    70  70 100 CALM      30.05S FOG
WASHINGTON CO* CLOUDY    70  68  94 CALM      30.04S
$$

PAZ004>006-010>012-017>019-024>028-033>037-041-042-045-046-049>053-011200-
CENTRAL PENNSYLVANIA

CITY           SKY/WX    TMP DP  RH WIND       PRES   REMARKS
BRADFORD       CLOUDY    68  66  93 CALM      30.07S
DUBOIS         CLOUDY    68  67  96 SW3       30.06R FOG
CLEARFIELD     CLOUDY    69  68  96 S3        30.06S FOG
JOHNSTOWN      CLOUDY    66  65  96 CALM      30.08S FOG
ALTOONA        CLOUDY    68  67  96 E5        30.06F
STATE COLLEGE  MOCLDY    68  66  94 CALM      30.05S
WILLIAMSPORT   FOG       69  67  93 CALM      30.02R VSB 1
SELINSGROVE    CLOUDY    69  68  96 CALM      30.03S FOG
FT INDIANTOWN  CLOUDY    69  69 100 CALM      30.04R
CAPITAL CITY   CLOUDY    70  69  97 CALM      30.03R
HARRISBURG     CLOUDY    72  70  93 NE3       30.02R
YORK           CLOUDY    68  67  96 CALM      30.03S
$$

PAZ038>040-043-044-047-048-054-055-060>062-067>071-011200-
EASTERN PENNSYLVANIA

CITY           SKY/WX    TMP DP  RH WIND       PRES   REMARKS
SCRANTON       CLOUDY    69  67  93 CALM      30.04R FOG
MOUNT POCONO   FOG       65  63  93 CALM      30.09R VSB 1
ALLENTOWN      FOG       72  70  94 CALM      30.03R VSB 1/4
QUAKERTOWN*    CLOUDY    70  70 100 CALM      30.04S
READING        FOG       72  70  93 CALM      30.02S VSB 1
LANCASTER      FOG       71  70  96 CALM      30.03S VSB 1/4
COATESVILLE    FOG       72  72 100 SW3       30.05S VSB 1/4
POTTSTOWN      CLOUDY    71  70  96 CALM      30.04S FOG
BLUE BELL      CLOUDY    72  72 100 CALM      30.03R VSB 3/4
DOYLESTOWN     CLOUDY    71  71 100 CALM      30.03R
WILLOW GROVE   NOT AVBL
NORTH PHILA    CLOUDY    75  70  84 CALM      30.04R
PHILADELPHIA   CLOUDY    74  72  93 SW5       30.03R
$$


USA.gov is the U.S. government's official web portal to all federal, state and local government web resources and services.